User: anonymous   Login
Location: Unspecified
(0.0000°N, 0.0000°E)
Time: 16:59:18
(UTC+00:00)
Language:

FR-1 - Orbit

View from above orbital plane
View from above orbital plane
View from above satellite
View from above satellite

Ground track
Ground track

The orbit data is extracted from the following two-line orbital elements,

1  1814U 65101A   19016.22564180  .00000079  00000-0  17077-4 0  9994
2  1814  75.8691 318.7738 0006497 294.1643  65.8857 14.66546686679636
Epoch (UTC): 16 January 2019 05:24:55
Eccentricity: 0.0006497
inclination: 75.8691°
perigee height: 667 km
apogee height: 676 km
right ascension of ascending node: 318.7738°
argument of perigee: 294.1643°
revolutions per day: 14.66546686
mean anomaly at epoch: 65.8857°
orbit number at epoch: 67963

The dashed part of the orbit path shows where the satellite is in the earth's shadow,  

DLR